Skip Page Navigation
NASA JPL Caltech
NASA Logo - Jet Propulsion Laboratory + View the NASA Portal
+ Center for Near-Earth Object Studies
JPL Home Earth Solar System Stars & Galaxies Technology
JPL Solar System Dynamics
BODIES ORBITS EPHEMERIDES TOOLS PHYSICAL DATA DISCOVERY FAQ SITE MAP
IMPORTANT: The SSD Announcement email list is now available. Major changes are coming in the near future, including possible hostname and/or URL changes. To be notified of such changes, subscribe to this email list.

Please visit this page for more details.


JPL Small-Body Database Browser
Search: [ help ]  
35824 (1999 JF53)
Classification: Main-belt Asteroid          SPK-ID: 2035824
Ephemeris | Orbit Diagram | Orbital Elements | Mission Design | Physical Parameters | Discovery Circumstances | Close-Approach Data ]

[ show orbit diagram ]
Orbital Elements at Epoch 2458600.5 (2019-Apr-27.0) TDB
Reference: JPL 23 (heliocentric ecliptic J2000)
 Element Value Uncertainty (1-sigma)   Units 
e .0510057042703673 4.8331e-08  
a 2.349986627171202 1.0353e-08 au
q 2.230123904226389 1.1071e-07 au
i 7.347110308450651 4.5169e-06 deg
node 95.82537660186485 3.7574e-05 deg
peri 108.9096086257682 5.6487e-05 deg
M 221.8292634322966 4.253e-05 deg
tp 2459105.521753147170
(2020-Sep-13.02175315)
0.00015593 TDB
period 1315.820090775123
3.60
8.6955e-06
2.381e-08
d
yr
n .2735936337527202 1.808e-09 deg/d
Q 2.469849350116014 1.0881e-08 au
  Orbit Determination Parameters
   # obs. used (total)      1134  
   data-arc span      10240 days (28.04 yr)  
   first obs. used      1991-01-11  
   last obs. used      2019-01-24  
   planetary ephem.      DE431  
   SB-pert. ephem.      SB431-N16  
   condition code      0  
   norm. resid. RMS      .5352  
   source      ORB  
   producer      Otto Matic  
   solution date      2019-Jul-13 01:48:55  

Additional Information
 Earth MOID = 1.23668 au 
 Jupiter MOID = 2.51353 au 
 T_jup = 3.546 
[ show covariance matrix ]

Ephemeris | Orbit Diagram | Orbital Elements | Mission Design | Physical Parameters | Discovery Circumstances | Close-Approach Data ]

Physical Parameter Table
Parameter Symbol Value Units Sigma Reference Notes
absolute magnitude H 14.8   n/a MPO358959  

35824 (1999 JF53)          Discovered 1999-May-10 by LINEAR at Socorro
Reference: 20020227/Numbers.arcLast Updated: 2004-04-19

[ show close-approach data ]
Alternate Designations
 1999 JF53 = 2000 SE162 
Ephemeris | Orbit Diagram | Orbital Elements | Mission Design | Physical Parameters | Discovery Circumstances | Close-Approach Data ]
ABOUT SSD CREDITS/AWARDS PRIVACY/COPYRIGHT GLOSSARY LINKS
FirstGov
(server date/time)  
NASA Home Page
Site Manager:   Ryan S. Park
Webmaster  Alan B. Chamberlin